Helicity
8 -6 1 22 23 28 38 35 53 78 -36 -35 -14 69 220 123 116 106 62 4 50 -0 67 11 28 99 70 153 61 11 60 91 93 5 -22 31 -35 17 49 5 97 52 5 31
-7 18 1 14 13 17 12 18 57 83 43 22 -1 -0 175 151 141 111 61 -5 47 11 85 37 208 -35 133 150 74 24 70 121 52 -12 -9 14 15 22 27 109 91 25 19 24
2 31 45 -11 -15 5 25 25 49 126 46 10 -19 -12 91 167 69 79 63 132 -5 66 104 40 85 83 143 205 141 72 81 94 20 5 -37 41 40 27 38 89 46 28 23 20
13 -22 3 41 -34 18 11 2 10 58 41 13 36 9 140 211 111 -20 118 112 70 25 68 96 12 102 116 235 157 115 72 92 9 -23 7 5 19 23 67 85 25 16 22 23
-4 14 1 -1 -1 19 2 25 8 51 47 27 5 27 74 114 92 -17 49 59 122 59 122 69 63 47 100 249 186 149 85 91 23 -27 -11 40 -48 28 44 48 39 84 60 12
-24 15 30 -12 34 8 6 6 30 17 22 30 21 -5 155 191 -11 -28 50 1 114 90 183 164 -4 178 65 207 212 178 124 62 35 10 -6 22 8 -61 75 85 73 54 67 34
-8 9 -8 27 5 22 -1 -3 3 13 24 47 29 22 125 -99 58 123 135 46 47 70 203 249 363 -97 -26 121 197 255 175 88 38 56 7 23 11 -23 -12 68 76 71 6 49
35 20 100 31 50 -23 30 -0 -6 12 74 93 124 77 67 91 59 15 27 90 100 20 83 257 131 13 134 48 238 254 205 134 76 66 36 11 5 -15 29 -6 65 70 2 -11
-21 -16 31 40 52 -39 -13 32 -23 -13 69 101 47 74 70 -8 36 12 17 211 12 -59 114 85 83 169 156 214 202 231 238 154 113 70 52 46 21 6 -1 4 54 24 86 60
-5 25 3 67 37 20 -38 -5 23 -10 -77 32 117 33 114 11 15 19 186 222 -33 65 11 90 83 177 228 235 194 167 230 150 111 70 69 64 57 31 -28 -28 37 32 34 55
15 24 -5 3 95 9 40 -48 3 15 26 -15 167 5 48 -27 2 9 106 22 69 49 45 119 114 202 189 162 161 143 179 146 111 73 79 72 77 58 26 -8 26 45 35 57
34 32 23 -13 11 46 -19 31 9 -0 1 30 31 35 95 62 -9 -10 209 182 111 229 69 116 75 131 172 145 57 147 121 162 124 93 76 100 91 73 91 64 44 48 37 61
54 49 21 -4 -12 40 45 -23 2 -5 -3 20 48 63 160 53 175 69 332 287 -23 1 69 81 87 95 135 75 42 143 132 155 110 102 118 98 95 111 82 86 72 97 102 83
98 58 26 -2 -31 82 49 28 -24 13 6 10 19 58 213 225 40 164 194 6 58 95 59 94 94 88 134 137 128 101 85 78 131 148 187 142 97 98 96 110 121 113 149 141
100 139 43 40 43 38 28 38 31 16 26 20 44 26 38 42 -16 61 82 -86 -111 172 62 96 91 81 97 130 133 102 102 91 119 122 120 103 90 81 73 102 127 126 136 142
28 127 64 76 60 55 37 55 47 37 14 28 76 89 58 96 129 24 137 131 105 90 88 101 115 80 95 101 97 80 90 108 108 124 91 90 68 64 67 58 53 111 108 117
56 31 42 58 29 18 24 35 29 -0 -0 -0 45 63 26 179 212 89 228 221 97 69 118 108 79 89 112 113 119 129 139 160 142 134 148 112 113 92 69 69 63 65 79 109
78 157 118 101 28 22 20 26 57 90 66 70 42 86 125 61 124 140 154 168 5 93 205 184 133 184 161 131 115 149 144 159 163 172 188 187 184 162 149 121 93 71 69 96
67 90 112 151 57 51 49 37 164 105 76 43 25 74 64 85 60 145 122 -44 -100 -21 218 243 257 209 103 159 190 156 165 172 174 251 271 211 160 136 113 97 88 80 88 101
73 89 131 99 106 44 21 28 109 -32 68 84 51 53 72 115 118 76 124 136 184 184 305 290 242 205 122 143 110 129 167 197 327 303 198 175 148 125 112 94 77 67 78 76
43 68 44 94 107 83 119 104 46 75 40 10 40 99 102 200 178 209 183 223 203 255 219 152 202 152 174 135 156 181 273 340 274 191 172 143 133 114 102 81 62 61 66 70
93 102 25 104 60 12 88 175 112 151 109 150 119 93 199 190 178 91 89 105 124 127 144 90 120 233 239 245 184 252 283 209 179 186 164 143 120 72 20 17 32 62 64 68
45 62 98 94 89 12 -24 138 -19 117 115 162 171 165 46 76 86 99 104 77 104 80 60 41 215 261 212 151 150 192 143 182 183 162 149 127 83 46 -6 -42 -8 30 95 121
55 -124 30 80 89 173 -125 64 99 77 94 79 102 102 107 102 72 47 72 78 83 134 168 214 232 219 154 107 112 103 138 151 115 111 72 41 51 35 -5 -61 -64 30 109 188
-100 153 105 167 161 327 149 143 125 53 70 62 102 57 72 46 63 56 120 158 180 158 121 118 94 83 75 44 34 54 102 90 80 86 88 95 57 3 -32 -87 -43 -90 41 98
-23 11 -3 25 394 226 108 153 536 172 112 85 73 63 69 69 131 127 176 119 105 86 79 53 55 57 40 18 18 32 75 79 64 80 84 77 42 -26 -55 -96 -98 -8 3 117
Wind_Speed
15 14 24 33 30 48 35 30 26 31 22 15 30 17 15 21 22 21 23 30 35 38 37 28 35 41 38 35 37 43 32 33 9 11 54 45 54 49 3 50 11 28 45 44
12 12 27 36 43 34 58 41 23 27 23 15 36 25 7 14 13 19 28 29 32 36 33 41 34 42 37 36 38 43 35 31 25 18 58 46 27 34 40 5 12 22 45 39
17 5 11 33 22 46 52 49 39 40 29 31 39 33 18 13 45 13 23 26 41 32 30 43 37 39 34 37 38 41 38 35 41 35 47 48 43 31 25 13 21 34 43 40
14 11 39 17 10 44 28 8 42 26 32 48 25 53 22 12 3 42 18 31 29 32 37 33 44 40 39 35 37 39 41 38 43 46 30 17 22 19 22 18 56 13 25 40
9 9 18 15 39 36 46 63 24 18 18 53 48 47 44 7 12 25 12 31 34 36 37 35 43 37 40 36 36 35 39 39 39 47 36 25 46 58 22 9 4 10 9 32
30 45 16 18 22 36 42 55 62 53 41 50 22 25 22 34 24 35 20 29 35 38 37 33 32 56 32 35 32 30 35 39 39 41 41 28 33 53 36 25 7 12 13 16
33 25 41 30 41 24 26 31 14 15 16 19 43 36 29 7 8 28 32 29 25 29 36 28 15 69 32 20 31 28 29 34 40 39 40 36 26 34 24 40 21 38 57 48
18 22 15 19 18 27 17 13 14 15 28 45 60 42 47 14 12 24 12 16 29 30 34 40 36 50 34 42 23 24 24 27 34 33 36 40 32 25 12 32 14 4 35 62
51 50 46 15 14 16 16 15 42 48 31 36 51 55 54 13 14 14 7 8 18 63 43 39 33 32 27 27 22 23 26 25 28 31 30 30 34 33 27 34 5 6 17 32
43 61 49 14 17 16 28 42 25 23 40 69 38 50 32 48 6 25 24 35 27 24 12 24 24 33 27 23 24 26 25 24 26 29 26 22 24 30 39 26 7 8 47 42
30 40 58 43 27 22 22 28 57 64 42 52 49 55 4 20 9 8 9 5 34 20 7 13 8 24 22 23 21 25 27 25 22 23 21 17 15 15 26 35 11 8 48 39
26 42 41 52 49 19 39 26 32 31 45 62 61 43 19 7 18 2 6 15 42 49 6 8 5 21 20 18 27 22 23 23 22 15 14 17 12 12 11 11 9 6 8 38
45 25 35 54 45 24 25 35 33 46 70 54 61 41 36 30 26 39 16 21 55 52 4 4 5 1 14 15 18 20 20 18 17 18 16 18 19 14 13 14 12 14 14 12
41 46 55 41 38 30 26 22 43 64 45 42 44 47 24 35 55 18 16 11 26 5 3 1 2 1 6 9 10 9 13 12 8 11 7 11 15 17 16 24 22 21 28 27
49 57 65 73 78 49 72 38 50 59 76 68 50 31 41 44 21 14 10 15 23 7 1 2 3 4 5 9 10 9 10 9 9 9 11 17 20 21 22 30 37 33 34 39
49 65 70 85 81 73 51 66 88 33 74 79 38 57 43 43 45 26 10 4 3 6 4 1 4 5 6 9 10 11 13 16 20 21 25 27 33 45 45 46 38 51 50 50
53 52 55 76 75 77 80 62 69 59 39 59 52 35 48 35 39 55 18 23 33 13 5 6 9 8 8 10 11 13 16 21 22 28 32 34 38 43 47 51 58 62 66 66
50 59 66 74 72 68 75 83 38 77 49 50 45 15 28 28 47 71 22 28 56 65 2 6 12 14 14 14 13 15 18 21 25 28 33 39 44 50 54 57 59 62 61 53
68 59 66 68 67 74 65 64 57 66 36 67 33 28 24 11 14 22 26 10 7 61 13 7 11 13 14 16 22 21 21 24 26 30 38 43 49 55 59 65 69 71 70 66
60 69 71 63 77 92 73 72 67 69 66 51 41 36 27 28 44 38 14 12 14 27 19 17 12 14 14 19 20 20 21 24 29 36 40 44 49 53 59 65 70 74 78 82
44 51 59 63 89 80 49 50 46 52 47 47 39 22 18 25 23 16 14 11 11 13 15 16 14 16 16 22 21 23 23 26 31 34 38 43 48 55 60 66 69 73 76 78
71 44 53 62 91 108 49 37 46 51 24 10 5 11 2 7 9 15 17 18 15 15 18 20 20 18 26 28 25 25 22 23 26 30 35 43 49 58 63 69 72 76 80 82
56 66 61 65 71 38 46 46 80 75 20 14 7 8 9 6 12 17 20 23 25 25 23 26 22 20 25 25 20 16 16 18 23 28 35 44 51 60 67 73 76 75 76 76
62 61 65 57 46 29 29 18 79 49 6 8 6 9 12 15 16 17 20 21 23 25 28 28 23 24 26 24 15 9 11 16 20 26 33 42 50 57 65 71 72 71 71 71
54 62 62 73 70 26 37 34 47 40 5 6 7 11 14 18 18 25 23 25 26 27 26 24 23 21 20 13 11 11 13 17 21 27 32 40 47 55 63 69 75 73 66 55
56 48 61 61 65 61 41 32 36 69 9 12 7 11 17 21 22 25 23 23 21 19 21 18 16 13 12 10 10 14 16 17 20 27 32 38 42 48 58 64 70 76 75 64
Wind_Direction
143 145 169 181 178 213 312 333 344 47 77 33 335 19 96 124 114 121 122 133 130 142 133 121 127 128 126 118 127 139 118 123 91 98 175 225 182 227 301 221 280 258 236 242
157 178 178 191 205 201 241 312 323 339 343 1 326 343 110 127 108 113 146 146 140 144 132 139 125 145 125 125 129 142 131 125 122 118 211 240 265 253 246 310 285 282 243 254
178 156 166 194 191 277 287 293 315 325 332 329 315 322 8 337 294 130 139 142 165 150 143 152 140 142 133 131 133 142 139 137 147 144 172 241 248 264 267 283 282 270 249 258
198 222 284 314 239 291 303 324 301 334 320 304 331 293 310 307 126 186 147 150 151 160 158 151 158 146 145 137 136 139 145 143 151 159 141 132 273 278 273 279 236 294 280 260
273 265 299 287 290 295 288 259 305 313 313 300 298 299 313 341 184 169 137 163 158 159 159 163 160 152 151 141 139 139 146 147 149 163 150 133 166 227 290 293 157 282 304 277
295 284 302 251 290 291 292 276 275 290 307 299 301 295 308 308 234 174 151 158 163 162 158 161 160 235 147 144 139 138 146 153 153 157 161 146 157 184 276 286 291 269 288 295
293 288 289 302 291 286 289 292 282 284 288 296 265 295 301 339 262 260 158 159 161 156 158 148 148 184 157 166 140 137 143 153 157 158 164 162 155 169 164 272 290 278 259 262
298 299 262 276 274 286 264 239 218 297 295 305 279 303 307 316 136 154 113 164 277 173 157 156 153 159 153 157 142 141 143 148 158 157 161 167 166 165 170 175 295 345 180 240
287 293 301 278 261 262 261 258 199 210 308 305 292 288 296 311 286 305 301 23 145 187 165 157 146 146 140 147 154 148 151 146 154 162 160 160 167 170 172 182 226 237 288 290
286 285 293 298 290 254 269 271 299 270 225 274 295 289 286 254 228 292 289 297 254 158 148 144 133 139 134 136 148 151 157 156 156 160 162 164 166 171 180 172 283 264 271 280
277 289 280 290 278 274 272 267 274 275 281 278 291 290 225 245 241 293 293 262 285 124 113 137 136 136 132 136 140 150 154 160 162 168 167 169 174 174 174 182 176 268 275 284
274 285 286 282 285 274 275 271 274 284 283 274 280 296 13 327 284 209 2 308 261 272 233 126 119 133 124 121 146 144 149 156 165 179 197 192 202 196 205 201 209 231 215 284
284 263 281 284 284 253 269 270 273 276 264 279 275 285 310 301 292 263 269 67 172 144 142 123 123 109 125 113 132 149 153 160 166 176 191 200 201 238 239 234 234 269 267 250
293 279 281 277 284 293 263 264 268 269 275 277 281 287 294 288 266 294 296 8 279 63 336 117 113 328 19 75 90 78 138 152 158 180 228 231 234 240 247 272 271 268 279 278
283 275 273 267 261 288 265 277 280 267 259 270 270 311 282 283 226 284 135 125 146 95 153 112 89 35 2 1 13 16 3 347 349 314 308 297 290 285 279 285 288 288 284 278
282 271 269 265 263 269 279 267 258 253 256 256 272 268 286 298 297 281 237 165 192 275 255 358 32 30 26 38 28 14 356 347 330 329 319 314 306 295 292 293 292 291 287 283
282 275 268 268 267 266 267 267 256 273 257 255 264 281 291 278 278 266 248 263 262 251 212 302 324 344 12 28 17 5 356 346 341 327 323 319 313 305 299 295 292 289 287 286
279 275 271 269 265 261 261 241 258 256 263 263 270 292 284 285 269 246 311 288 299 246 75 345 332 329 341 354 4 357 348 342 337 333 326 321 315 306 302 299 296 294 295 295
269 271 269 268 268 264 262 263 258 266 260 243 275 279 290 255 284 313 350 346 134 198 130 355 346 341 341 341 334 339 342 339 335 334 327 321 316 309 304 299 295 293 293 294
260 263 263 264 260 252 263 267 256 283 258 256 277 281 280 276 273 281 294 311 302 295 327 319 329 334 337 338 340 336 337 336 334 328 327 325 321 316 311 306 302 297 292 287
255 249 249 255 250 251 273 282 280 263 270 256 264 280 281 285 288 308 317 332 322 317 317 318 330 335 339 335 338 330 333 334 333 335 334 331 329 323 318 312 308 303 299 295
264 246 242 251 244 234 269 275 234 246 293 319 297 303 357 342 325 309 309 311 318 324 323 320 321 330 334 335 336 330 331 339 345 343 339 336 335 332 327 319 313 307 300 295
256 252 249 251 251 264 262 254 223 245 271 278 324 335 60 354 322 315 311 306 307 310 316 317 325 327 331 336 333 334 343 6 359 351 345 343 342 338 332 326 320 315 310 302
265 266 252 259 243 240 241 204 216 219 251 288 359 316 313 309 322 321 320 318 313 313 316 316 326 324 328 331 331 354 12 20 18 8 360 356 353 352 350 347 341 330 320 310
274 257 250 241 248 226 242 240 254 276 36 324 9 334 325 318 320 315 319 320 321 317 319 322 323 333 343 3 28 74 58 49 37 21 14 8 5 3 0 1 358 356 349 336
275 269 239 241 254 262 245 250 255 247 242 278 313 331 329 329 324 320 325 325 331 335 334 341 351 14 20 42 59 80 76 46 42 27 16 11 11 13 11 12 10 13 13 8